Weather History for Burlington, IA

Change the Weather History Date:

Monday, March 25, 2013

  Actual Average Record
Temperature  
Mean Temperature 31 °F 46 °F  
Max Temperature 32 °F 56 °F 84 °F (1907)
Min Temperature 30 °F 35 °F 5 °F (1960)
Degree Days  
Heating Degree Days 34 20  
Month to date heating degree days 781 620  
Since 1 July heating degree days 5152 4998  
Cooling Degree Days 0 0  
Month to date cooling degree days 0 0  
Year to date cooling degree days 0 0  
Moisture  
Dew Point 26 °F    
Average Humidity 89    
Maximum Humidity 92    
Minimum Humidity 85    
Precipitation  
Precipitation 0.21 in 0.09 in 0.64 in (1957)
Month to date precipitation 1.90 2.20  
Year to date precipitation 5.87 5.06  
Sea Level Pressure  
Sea Level Pressure 29.94 in    
Wind  
Wind Speed 15 mph (NNW)    
Max Wind Speed 22 mph    
Max Gust Speed 29 mph    
Visibility 5 miles    
Events Snow    
T = Trace of Precipitation, MM = Missing Value Source: NWS Daily Summary

Daily Weather History Graph

Daily Weather History Graph

Search for Another Location

Airport:

Trip Planner

Search our weather history database for the weather conditions in past years. The results will help you decide how hot, cold, wet, or windy it might be!

Date:

Astronomy

Mar. 25, 2013 Rise Set
Actual Time 6:59 AM CDT 7:22 PM CDT
Civil Twilight 6:31 AM CDT 7:49 PM CDT
Nautical Twilight 5:59 AM CDT 8:21 PM CDT
Astronomical Twilight 5:26 AM CDT 8:55 PM CDT
Moon 5:53 PM CDT 5:43 AM CDT
Length of Visible Light 13h 17m
Length of Day
12h 23m
Waxing Gibbous, 96% of the Moon is Illuminated
Mar 25
Waxing Gibbous
Mar 27
Full
Apr 2
Last Quarter
Apr 10
New
Apr 18
First Quarter

Hourly Weather History & Observations

Time (CDT) Temp. Windchill Dew Point Humidity Pressure Visibility Wind Dir Wind Speed Gust Speed Precip Events Conditions
12:06 AM 30.2 °F 20.2 °F 26.6 °F 86% 29.85 in 2.5 mi NNW 12.7 mph - 0.00 in Snow Light Snow
12:25 AM 30.2 °F 19.8 °F 28.4 °F 93% 29.85 in 3.0 mi NNW 13.8 mph 20.7 mph 0.00 in Snow Light Snow
12:53 AM 30.0 °F 20.0 °F 27.0 °F 88% 29.87 in 2.0 mi NNW 12.7 mph 20.7 mph 0.00 in Snow Light Snow
1:09 AM 30.2 °F 20.2 °F 26.6 °F 86% 29.85 in 1.8 mi NNW 12.7 mph 24.2 mph 0.00 in Snow Light Snow
1:20 AM 30.2 °F 20.8 °F 26.6 °F 86% 29.85 in 1.5 mi NNW 11.5 mph - 0.00 in Snow Light Snow
1:24 AM 30.2 °F 20.8 °F 28.4 °F 93% 29.85 in 1.5 mi NNW 11.5 mph - 0.00 in Snow Light Snow
1:35 AM 30.2 °F 19.8 °F 26.6 °F 86% 29.86 in 2.0 mi NNW 13.8 mph - 0.00 in Snow Light Snow
1:41 AM 30.2 °F 20.8 °F 26.6 °F 86% 29.86 in 2.0 mi NNW 11.5 mph - 0.00 in Snow Light Snow
1:53 AM 30.0 °F 21.1 °F 27.0 °F 88% 29.88 in 1.8 mi NNW 10.4 mph - 0.00 in Snow Light Snow
2:19 AM 30.2 °F 21.3 °F 28.4 °F 93% 29.86 in 1.2 mi NNW 10.4 mph - 0.00 in Snow Light Snow
2:28 AM 30.2 °F 20.8 °F 26.6 °F 86% 29.86 in 1.5 mi NNW 11.5 mph - 0.00 in Snow Light Snow
2:46 AM 30.2 °F 20.2 °F 26.6 °F 86% 29.86 in 2.0 mi NNW 12.7 mph - 0.00 in Snow Light Snow
2:53 AM 30.0 °F 20.5 °F 27.0 °F 88% 29.88 in 1.8 mi NNW 11.5 mph - 0.00 in Snow Light Snow
3:12 AM 28.4 °F 18.5 °F 26.6 °F 93% 29.86 in 1.2 mi NNW 11.5 mph - 0.00 in Snow Light Snow
3:19 AM 28.4 °F 19.7 °F 26.6 °F 93% 29.86 in 1.5 mi NNW 9.2 mph - 0.00 in Snow Light Snow
3:45 AM 28.4 °F 19.1 °F 26.6 °F 93% 29.86 in 1.2 mi NNW 10.4 mph - 0.00 in Snow Light Snow
3:53 AM 28.9 °F 19.8 °F 27.0 °F 92% 29.88 in 1.2 mi NNW 10.4 mph - 0.00 in Snow Light Snow
4:01 AM 28.4 °F 18.5 °F 26.6 °F 93% 29.86 in 1.2 mi NNW 11.5 mph - 0.00 in Snow Light Snow
4:44 AM 28.4 °F 18.0 °F 26.6 °F 93% 29.86 in 1.8 mi NNW 12.7 mph - 0.00 in Snow Light Snow
4:53 AM 28.9 °F 19.8 °F 27.0 °F 92% 29.88 in 1.5 mi NNW 10.4 mph - 0.00 in Snow Light Snow
5:06 AM 28.4 °F 19.1 °F 26.6 °F 93% 29.87 in 2.0 mi NNW 10.4 mph - 0.00 in Snow Light Snow
5:21 AM 28.4 °F 19.7 °F 26.6 °F 93% 29.87 in 3.0 mi NW 9.2 mph - N/A Snow Light Snow
5:53 AM 28.4 °F 19.1 °F 26.6 °F 93% 29.87 in 9.0 mi NNW 10.4 mph - N/A   Overcast
6:03 AM 28.4 °F 19.7 °F 26.6 °F 93% 29.87 in 4.0 mi NNW 9.2 mph - 0.00 in Snow Light Snow
6:13 AM 28.4 °F 18.5 °F 26.6 °F 93% 29.88 in 3.0 mi NW 11.5 mph - 0.00 in Snow Light Snow
6:22 AM 28.4 °F 18.5 °F 26.6 °F 93% 29.88 in 2.5 mi NW 11.5 mph - 0.00 in Snow Light Snow
6:51 AM 28.4 °F 19.7 °F 26.6 °F 93% 29.89 in 2.0 mi NW 9.2 mph - 0.00 in Snow Light Snow
6:53 AM 28.9 °F 19.8 °F 27.0 °F 92% 29.91 in 2.0 mi NW 10.4 mph - 0.00 in Snow Light Snow
7:02 AM 28.4 °F 18.5 °F 26.6 °F 93% 29.89 in 1.5 mi NNW 11.5 mph - 0.00 in Snow Light Snow
7:13 AM 28.4 °F 19.1 °F 26.6 °F 93% 29.90 in 2.5 mi NNW 10.4 mph - 0.00 in Snow Light Snow
7:15 AM 28.4 °F 19.7 °F 26.6 °F 93% 29.90 in 3.0 mi NW 9.2 mph - 0.00 in Snow Light Snow
7:22 AM 28.4 °F 19.1 °F 26.6 °F 93% 29.90 in 6.0 mi NW 10.4 mph - 0.00 in   Overcast
7:53 AM 30.0 °F 21.7 °F 26.1 °F 85% 29.93 in 10.0 mi NNW 9.2 mph - 0.00 in   Overcast
8:06 AM 30.2 °F 21.3 °F 26.6 °F 86% 29.92 in 10.0 mi NNW 10.4 mph 17.3 mph N/A   Overcast
8:53 AM 30.0 °F 19.1 °F 26.1 °F 85% 29.96 in 10.0 mi NNW 15.0 mph - N/A   Overcast
9:53 AM 30.0 °F 20.5 °F 26.1 °F 85% 29.99 in 10.0 mi NNW 11.5 mph - N/A   Overcast
10:09 AM 30.2 °F 20.8 °F 24.8 °F 80% 29.97 in 10.0 mi NNW 11.5 mph - N/A   Overcast
10:31 AM 30.2 °F 19.3 °F 24.8 °F 80% 29.97 in 10.0 mi NNW 15.0 mph - 0.01 in   Mostly Cloudy
10:53 AM 30.9 °F 20.2 °F 23.0 °F 72% 30.00 in 10.0 mi NNW 15.0 mph 25.3 mph 0.04 in   Scattered Clouds
11:53 AM 32.0 °F 22.1 °F 21.9 °F 66% 30.02 in 10.0 mi NNW 13.8 mph - N/A   Partly Cloudy
12:53 PM 33.1 °F 23.4 °F 21.9 °F 64% 30.02 in 10.0 mi NW 13.8 mph - N/A   Mostly Cloudy
1:53 PM 33.1 °F 24.4 °F 23.0 °F 66% 30.03 in 10.0 mi NNW 11.5 mph 19.6 mph N/A   Mostly Cloudy
2:53 PM 32.0 °F 22.5 °F 23.0 °F 69% 30.04 in 10.0 mi NW 12.7 mph - N/A   Clear
3:53 PM 33.1 °F 23.9 °F 24.1 °F 70% 30.06 in 10.0 mi NW 12.7 mph - N/A   Partly Cloudy
4:24 PM 33.8 °F 24.8 °F 24.8 °F 70% 30.05 in 10.0 mi NW 12.7 mph 20.7 mph N/A   Mostly Cloudy
4:53 PM 33.1 °F 23.4 °F 24.1 °F 70% 30.08 in 10.0 mi NW 13.8 mph - N/A   Scattered Clouds
5:53 PM 34.0 °F 25.5 °F 25.0 °F 70% 30.10 in 10.0 mi NW 11.5 mph - N/A   Mostly Cloudy
6:53 PM 33.1 °F 25.5 °F 25.0 °F 72% 30.12 in 10.0 mi NNW 9.2 mph - N/A   Overcast
7:53 PM 33.1 °F 26.9 °F 23.0 °F 66% 30.14 in 10.0 mi NNW 6.9 mph - N/A   Overcast
8:53 PM 33.1 °F 27.7 °F 23.0 °F 66% 30.16 in 10.0 mi NNW 5.8 mph - N/A   Overcast
9:53 PM 33.1 °F 26.1 °F 24.1 °F 70% 30.18 in 10.0 mi NNW 8.1 mph - N/A   Overcast
10:53 PM 33.1 °F 26.9 °F 24.1 °F 70% 30.19 in 10.0 mi NNW 6.9 mph - N/A   Overcast
11:53 PM 33.1 °F 25.5 °F 25.0 °F 72% 30.20 in 10.0 mi NNW 9.2 mph - N/A   Overcast